Weather History for Indianapolis, IN

Change the Weather History Date:

Friday, February 3, 2012

  Actual Average (KEYE) Record (KEYE)
Temperature  
Mean Temperature 40 °F 29 °F  
Max Temperature 52 °F 37 °F 55 °F (2003)
Min Temperature 28 °F 22 °F 7 °F (2007)
Degree Days  
Heating Degree Days 25 36  
Month to date heating degree days 108  
Since 1 July heating degree days 3309  
Cooling Degree Days 0 0  
Month to date cooling degree days 0  
Year to date cooling degree days 0  
Moisture  
Dew Point 34 °F    
Average Humidity 81    
Maximum Humidity 98    
Minimum Humidity 54    
Precipitation  
Precipitation 0.00 in 0.06 in 0.40 in (2003)
Month to date precipitation 0.18  
Year to date precipitation 2.39  
Sea Level Pressure  
Sea Level Pressure 30.38 in    
Wind  
Wind Speed 2 mph (East)    
Max Wind Speed 9 mph    
Max Gust Speed -    
Visibility 6 miles    
Events Fog    
T = Trace of Precipitation, MM = Missing Value Source: NWS Daily Summary

Daily Weather History Graph

Daily Weather History Graph

Search for Another Location

Airport:

Trip Planner

Search our weather history database for the weather conditions in past years. The results will help you decide how hot, cold, wet, or windy it might be!

Date:

Astronomy

Feb. 03, 2012 Rise Set
Actual Time 7:52 AM EST 6:05 PM EST
Civil Twilight 7:23 AM EST 6:34 PM EST
Nautical Twilight 6:51 AM EST 7:06 PM EST
Astronomical Twilight 6:19 AM EST 7:38 PM EST
Moon 2:06 PM EST (2/3) 4:27 AM EST (2/3)
Length of Visible Light 11h 10m
Length of Day
10h 13m
Waxing Gibbous, 81% of the Moon is Illuminated
Feb 3
Waxing Gibbous
Feb 7
Full
Feb 14
Last Quarter
Feb 21
New
Feb 29
First Quarter

Hourly Weather History & Observations

Time (EST) Temp. Windchill Dew Point Humidity Pressure Visibility Wind Dir Wind Speed Gust Speed Precip Events Conditions
12:35 AM 32.0 °F - 31.5 °F 98% 30.40 in 2.5 mi Calm Calm - N/A   Clear
12:55 AM 32.9 °F - 32.0 °F 96% 30.40 in 2.5 mi Calm Calm - N/A   Clear
1:15 AM 32.0 °F - 31.1 °F 96% 30.40 in 2.0 mi Calm Calm - N/A   Clear
1:35 AM 31.8 °F - 30.9 °F 96% 30.40 in 1.5 mi Calm Calm - N/A   Mist
1:55 AM 31.8 °F - 30.9 °F 96% 30.40 in 0.2 mi Calm Calm - N/A Fog Fog
2:15 AM 31.1 °F - 30.2 °F 96% 30.40 in 2.0 mi Calm Calm - N/A   Clear
2:35 AM 30.7 °F - 29.8 °F 96% 30.40 in 1.2 mi Calm Calm - N/A   Mist
2:55 AM 30.6 °F - 29.8 °F 97% 30.40 in 2.5 mi Calm Calm - N/A   Clear
3:35 AM 30.2 °F - 29.3 °F 96% 30.40 in 4.0 mi Calm Calm - N/A   Clear
3:55 AM 29.8 °F - 29.1 °F 97% 30.40 in 4.0 mi Calm Calm - N/A   Clear
4:15 AM 30.4 °F - 29.7 °F 97% 30.40 in 3.0 mi Calm Calm - N/A   Clear
4:35 AM 29.5 °F - 28.9 °F 98% 30.40 in 3.0 mi Calm Calm - N/A   Clear
4:55 AM 29.3 °F - 28.8 °F 98% 30.41 in 4.0 mi Calm Calm - N/A   Clear
5:15 AM 29.3 °F - 28.4 °F 96% 30.41 in 3.0 mi Calm Calm - N/A   Clear
5:35 AM 30.0 °F - 29.3 °F 97% 30.41 in 2.5 mi Calm Calm - N/A   Clear
5:55 AM 29.3 °F - 28.8 °F 98% 30.42 in 3.0 mi Calm Calm - N/A   Clear
6:15 AM 28.9 °F - 28.2 °F 97% 30.42 in 2.5 mi Calm Calm - N/A   Clear
6:35 AM 29.3 °F - 28.4 °F 96% 30.43 in 3.0 mi Calm Calm - N/A   Clear
7:35 AM 29.3 °F - 28.8 °F 98% 30.44 in 2.5 mi Calm Calm - N/A   Clear
7:55 AM 29.7 °F 26.1 °F 28.9 °F 97% 30.43 in 2.0 mi East 3.5 mph - N/A   Clear
8:15 AM 30.2 °F - 29.3 °F 96% 30.43 in 1.5 mi Calm Calm - N/A   Mist
8:55 AM 31.5 °F - 30.7 °F 97% 30.44 in 1.8 mi Calm Calm - N/A   Mist
9:15 AM 33.1 °F 30.0 °F 32.2 °F 96% 30.44 in 1.5 mi East 3.5 mph - N/A   Mist
9:35 AM 34.9 °F 30.8 °F 34.0 °F 97% 30.44 in 2.5 mi ESE 4.6 mph - N/A   Clear
9:55 AM 36.1 °F 30.6 °F 34.9 °F 95% 30.43 in 3.0 mi East 6.9 mph - N/A   Clear
10:15 AM 37.8 °F 33.3 °F 36.0 °F 93% 30.43 in 4.0 mi ESE 5.8 mph - N/A   Clear
10:35 AM 40.1 °F 36.1 °F 37.0 °F 89% 30.44 in 4.0 mi ESE 5.8 mph - N/A   Clear
10:55 AM 41.4 °F 38.4 °F 37.0 °F 85% 30.44 in 5.0 mi ESE 4.6 mph - N/A   Clear
11:15 AM 44.1 °F 40.8 °F 38.3 °F 80% 30.41 in 5.0 mi ESE 5.8 mph - N/A   Haze
11:55 AM 47.8 °F - 39.6 °F 73% 30.40 in 7.0 mi ESE 8.1 mph - N/A   Clear
12:15 PM 48.6 °F - 39.2 °F 70% 30.40 in 10.0 mi SE 9.2 mph - N/A   Clear
12:35 PM 48.6 °F - 38.5 °F 68% 30.39 in 10.0 mi SE 8.1 mph - N/A   Clear
12:55 PM 49.3 °F - 38.5 °F 66% 30.38 in 10.0 mi SSE 6.9 mph - N/A   Clear
1:15 PM 50.2 °F - 37.8 °F 62% 30.38 in 10.0 mi SE 8.1 mph - N/A   Clear
1:35 PM 51.4 °F - 38.3 °F 61% 30.37 in 10.0 mi ESE 5.8 mph - N/A   Clear
1:55 PM 51.4 °F - 37.8 °F 60% 30.36 in 10.0 mi ESE 5.8 mph - N/A   Clear
2:15 PM 51.8 °F - 37.4 °F 58% 30.36 in 10.0 mi Calm Calm - N/A   Clear
2:55 PM 52.7 °F - 37.2 °F 56% 30.34 in 10.0 mi East 3.5 mph - N/A   Clear
3:15 PM 52.2 °F - 36.9 °F 56% 30.35 in 10.0 mi ESE 3.5 mph - N/A   Clear
3:35 PM 52.7 °F - 36.9 °F 55% 30.34 in 10.0 mi East 4.6 mph - N/A   Clear
3:55 PM 52.2 °F - 36.5 °F 55% 30.34 in 10.0 mi East 3.5 mph - N/A   Clear
4:15 PM 52.7 °F - 36.5 °F 54% 30.34 in 10.0 mi East 3.5 mph - N/A   Clear
4:35 PM 52.7 °F - 36.9 °F 55% 30.33 in 10.0 mi ENE 3.5 mph - N/A   Clear
4:55 PM 50.9 °F - 38.5 °F 62% 30.32 in 10.0 mi NE 6.9 mph - N/A   Clear
5:15 PM 50.5 °F - 38.7 °F 64% 30.32 in 10.0 mi NE 5.8 mph - N/A   Clear
5:35 PM 49.1 °F - 38.7 °F 67% 30.33 in 10.0 mi NE 4.6 mph - N/A   Clear
6:15 PM 47.8 °F - 39.0 °F 71% 30.32 in 10.0 mi ENE 4.6 mph - N/A   Clear
6:35 PM 47.7 °F - 38.7 °F 71% 30.32 in 10.0 mi ENE 5.8 mph - N/A   Clear
6:55 PM 46.8 °F - 38.5 °F 73% 30.32 in 10.0 mi NE 6.9 mph - N/A   Clear
7:15 PM 46.4 °F 43.5 °F 38.3 °F 73% 30.33 in 10.0 mi ENE 5.8 mph - N/A   Clear
7:35 PM 45.9 °F 43.6 °F 37.9 °F 74% 30.33 in 10.0 mi ENE 4.6 mph - N/A   Clear
7:55 PM 45.5 °F 42.5 °F 37.8 °F 74% 30.33 in 10.0 mi ENE 5.8 mph - N/A   Clear
8:35 PM 45.7 °F 43.4 °F 37.4 °F 73% 30.32 in 10.0 mi ENE 4.6 mph - N/A   Scattered Clouds
8:55 PM 45.0 °F 43.5 °F 37.4 °F 75% 30.33 in 10.0 mi ENE 3.5 mph - N/A   Scattered Clouds
9:15 PM 44.8 °F 43.3 °F 37.4 °F 75% 30.32 in 10.0 mi ENE 3.5 mph - N/A   Mostly Cloudy
9:35 PM 42.8 °F 40.1 °F 36.9 °F 80% 30.32 in 10.0 mi NNE 4.6 mph - N/A   Overcast
9:55 PM 41.9 °F 38.2 °F 36.9 °F 82% 30.32 in 10.0 mi NE 5.8 mph - N/A   Mostly Cloudy
10:15 PM 42.8 °F 37.5 °F 38.1 °F 84% 30.31 in 7.0 mi ENE 9.2 mph - N/A   Overcast
10:35 PM 43.2 °F 37.9 °F 38.3 °F 83% 30.31 in 7.0 mi ENE 9.2 mph - N/A   Overcast
10:55 PM 43.2 °F 38.4 °F 38.3 °F 83% 30.31 in 7.0 mi ENE 8.1 mph - N/A   Overcast
11:15 PM 43.2 °F 37.9 °F 37.8 °F 81% 30.29 in 7.0 mi ENE 9.2 mph - N/A   Overcast
11:35 PM 43.3 °F 38.1 °F 37.6 °F 80% 30.28 in 7.0 mi East 9.2 mph - N/A   Overcast
11:55 PM 43.5 °F 38.9 °F 37.2 °F 78% 30.28 in 7.0 mi ENE 8.1 mph - N/A   Overcast